Temp
71 70 70 69 68 69 68 68 68 67 67 67 66 66 66 67 68 68 68 68 68 67 67 67 67 66 68 66 66 66 65 64 64 65 65 64 63 63 64 65 62 61
71 71 71 70 69 69 70 69 69 68 67 67 67 67 68 68 68 68 68 68 68 68 68 68 67 68 67 67 67 66 65 65 64 68 64 64 63 63 63 62 62 62
72 71 71 70 69 70 70 70 70 68 68 69 68 68 69 70 68 68 69 69 68 67 67 68 68 68 69 67 66 66 65 64 64 65 64 64 63 62 63 63 63 63
71 72 72 71 71 69 69 68 68 68 69 68 68 69 69 70 68 68 69 70 68 67 67 68 68 68 68 67 66 64 65 65 65 64 64 64 64 64 63 63 63 63
73 72 71 71 71 71 71 69 70 69 69 69 69 68 69 68 68 68 68 69 67 67 67 68 68 67 67 67 67 65 65 64 65 65 63 63 64 64 64 63 62 62
73 73 73 73 71 69 68 69 71 70 70 70 70 69 69 69 68 69 68 67 68 69 69 68 68 68 68 67 66 65 65 64 65 66 65 64 64 65 65 64 63 63
72 71 72 72 73 72 70 71 70 70 69 69 70 69 69 69 68 69 70 68 70 69 69 67 67 67 67 67 66 65 65 66 67 67 67 65 63 63 65 64 64 64
73 72 73 73 72 71 71 71 70 70 70 70 68 69 70 70 71 69 69 69 69 70 69 69 69 70 68 67 66 65 65 67 66 66 65 65 63 63 64 65 64 63
72 72 73 72 71 70 70 71 71 70 70 69 69 70 70 70 70 70 70 70 70 69 70 70 70 69 67 67 66 67 67 66 65 64 64 64 64 64 65 65 64 64
73 72 72 72 71 70 71 70 71 70 70 70 70 69 71 69 70 72 71 69 69 69 70 70 70 69 69 68 69 68 67 66 65 64 64 63 63 64 64 64 64 63
72 72 71 71 70 69 70 71 71 70 70 71 70 69 70 69 70 71 70 70 68 70 70 70 69 69 69 68 68 66 65 64 63 63 62 62 62 62 64 62 62 61
71 72 72 71 71 71 71 71 71 71 71 70 72 70 69 70 70 70 71 71 71 71 70 70 70 69 68 67 66 65 64 62 61 61 61 61 61 61 61 62 61 61
72 72 71 71 71 71 71 71 71 70 71 73 72 71 70 69 70 70 70 70 70 69 69 69 68 68 65 64 64 63 62 61 59 59 59 59 59 59 60 60 61 61
72 73 72 72 71 71 71 71 71 70 69 69 70 69 70 70 69 69 69 70 69 69 69 68 67 65 60 61 61 60 59 59 58 57 57 57 57 58 58 59 59 60
72 72 72 71 72 71 70 70 71 70 70 70 69 69 69 70 69 69 69 69 69 68 68 67 66 60 57 56 57 57 58 57 57 56 56 55 55 56 57 58 59 60
73 71 72 72 72 71 71 70 70 70 69 69 69 69 69 68 68 68 68 67 67 67 67 65 63 56 53 49 50 53 55 55 55 55 55 55 54 54 56 57 58 60
72 71 72 72 70 70 69 70 70 69 68 68 67 67 67 67 66 66 66 66 66 65 64 64 56 51 46 44 44 47 51 52 53 54 55 54 54 54 54 56 57 58
72 73 72 71 71 71 70 70 69 69 68 67 66 65 65 65 64 65 65 64 64 64 62 61 49 46 43 44 44 45 47 50 53 54 53 53 53 53 54 54 53 53
73 72 71 70 70 70 69 69 68 67 66 66 65 65 64 64 64 63 63 63 63 63 61 56 47 44 43 44 44 44 44 49 53 53 52 51 52 53 53 52 52 51
72 71 70 70 70 69 69 68 66 65 64 64 64 64 62 62 62 62 62 62 62 61 60 50 48 44 42 43 43 44 44 48 53 51 51 51 51 52 51 51 50 50
72 71 69 69 69 68 67 66 65 63 64 63 63 62 61 60 61 60 61 61 60 60 59 47 46 43 42 42 42 43 45 49 51 50 50 50 50 50 50 50 50 50
71 69 67 68 68 67 65 64 63 63 62 62 61 61 61 61 61 61 60 60 60 59 57 49 44 41 42 41 42 42 45 49 49 48 48 49 48 49 49 49 49 49
70 68 66 66 66 65 64 62 62 62 61 61 60 60 60 59 59 59 59 59 58 58 56 52 45 42 41 42 41 41 44 46 46 47 47 46 47 47 47 47 46 47
69 68 66 65 65 63 62 61 62 61 60 61 59 59 58 59 59 59 59 58 57 56 56 53 45 43 42 42 41 41 43 43 44 43 43 43 43 43 43 44 45 48
67 66 65 64 64 62 61 61 61 60 60 60 59 60 58 59 58 57 57 57 56 55 57 54 51 45 42 41 41 41 42 42 42 41 40 39 39 39 41 42 43 45
66 65 64 63 63 62 61 61 61 60 58 58 58 59 58 57 57 56 55 55 54 54 54 53 52 50 44 41 41 41 41 41 41 39 38 38 39 40 40 41 42 43
MSLP
1020.34 1020.42 1020.50 1020.54 1020.62 1020.66 1020.74 1020.74 1020.58 1020.62 1020.54 1020.46 1020.54 1020.46 1020.42 1020.22 1020.10 1020.02 1019.90 1019.86 1019.74 1019.58 1019.62 1019.54 1019.38 1019.26 1019.14 1018.98 1018.98 1018.94 1018.94 1018.86 1018.74 1018.54 1018.42 1018.34 1018.30 1018.18 1018.06 1017.90 1017.78 1017.78
1020.22 1020.30 1020.34 1020.34 1020.46 1020.46 1020.42 1020.38 1020.42 1020.50 1020.50 1020.46 1020.42 1020.38 1020.26 1020.14 1020.10 1019.94 1019.86 1019.78 1019.70 1019.54 1019.38 1019.30 1019.18 1019.10 1018.98 1018.90 1018.82 1018.78 1018.74 1018.66 1018.58 1018.30 1018.30 1018.22 1018.10 1017.98 1017.82 1017.70 1017.62 1017.54
1020.02 1020.10 1020.18 1020.26 1020.34 1020.26 1020.26 1020.14 1020.14 1020.22 1020.30 1020.30 1020.30 1020.30 1020.18 1019.98 1020.02 1019.74 1019.58 1019.50 1019.42 1019.30 1019.10 1018.94 1018.86 1018.74 1018.66 1018.58 1018.54 1018.50 1018.50 1018.42 1018.38 1018.10 1018.02 1017.98 1017.78 1017.70 1017.50 1017.34 1017.30 1017.26
1019.86 1019.94 1020.06 1020.10 1020.06 1020.14 1020.14 1020.10 1019.98 1020.02 1020.10 1020.26 1020.26 1020.14 1019.98 1019.86 1019.78 1019.62 1019.38 1019.22 1019.22 1019.06 1018.90 1018.74 1018.62 1018.50 1018.34 1018.26 1018.22 1018.22 1018.14 1018.06 1017.94 1017.82 1017.78 1017.62 1017.46 1017.34 1017.22 1017.10 1017.06 1017.02
1019.70 1019.78 1019.86 1019.94 1019.98 1019.98 1020.02 1020.10 1020.06 1020.02 1020.06 1020.10 1020.06 1019.94 1019.86 1019.74 1019.58 1019.46 1019.26 1019.14 1019.02 1018.94 1018.78 1018.66 1018.50 1018.38 1018.22 1018.06 1017.94 1017.90 1017.78 1017.70 1017.54 1017.46 1017.42 1017.34 1017.10 1016.98 1016.86 1016.82 1016.86 1016.82
1019.54 1019.62 1019.66 1019.78 1019.86 1019.98 1020.10 1020.10 1020.02 1019.98 1019.94 1019.94 1019.90 1019.74 1019.62 1019.46 1019.38 1019.22 1019.10 1019.02 1018.82 1018.66 1018.58 1018.42 1018.34 1018.14 1017.90 1017.74 1017.66 1017.62 1017.50 1017.42 1017.26 1017.10 1017.10 1016.98 1016.86 1016.70 1016.62 1016.54 1016.50 1016.42
1019.58 1019.58 1019.66 1019.66 1019.70 1019.74 1019.90 1019.94 1019.90 1019.86 1019.86 1019.78 1019.62 1019.50 1019.34 1019.26 1019.14 1018.98 1018.82 1018.70 1018.54 1018.38 1018.26 1018.14 1018.02 1017.86 1017.66 1017.54 1017.50 1017.42 1017.26 1017.10 1016.94 1016.82 1016.70 1016.58 1016.50 1016.50 1016.38 1016.30 1016.18 1016.10
1019.42 1019.42 1019.54 1019.58 1019.66 1019.66 1019.78 1019.78 1019.78 1019.78 1019.70 1019.58 1019.54 1019.26 1019.14 1019.06 1018.86 1018.74 1018.58 1018.46 1018.38 1018.26 1018.10 1017.90 1017.74 1017.62 1017.46 1017.38 1017.34 1017.18 1017.02 1016.82 1016.66 1016.54 1016.54 1016.46 1016.38 1016.34 1016.22 1016.02 1015.86 1015.74
1019.26 1019.34 1019.38 1019.54 1019.66 1019.62 1019.66 1019.66 1019.66 1019.66 1019.54 1019.46 1019.30 1019.14 1018.94 1018.82 1018.74 1018.62 1018.50 1018.38 1018.30 1018.14 1017.94 1017.74 1017.54 1017.42 1017.26 1017.14 1017.06 1016.94 1016.78 1016.66 1016.58 1016.66 1016.74 1016.70 1016.58 1016.46 1016.22 1015.98 1015.78 1015.54
1019.18 1019.18 1019.26 1019.42 1019.54 1019.54 1019.58 1019.54 1019.46 1019.42 1019.30 1019.26 1019.14 1018.98 1018.90 1018.70 1018.58 1018.50 1018.38 1018.26 1018.14 1017.98 1017.78 1017.62 1017.46 1017.34 1017.22 1017.14 1017.06 1016.94 1016.90 1016.94 1016.94 1016.94 1017.02 1016.98 1016.82 1016.58 1016.30 1016.06 1015.78 1015.50
1019.06 1019.02 1019.18 1019.30 1019.38 1019.34 1019.30 1019.26 1019.26 1019.22 1019.18 1019.14 1019.02 1018.90 1018.74 1018.66 1018.50 1018.26 1018.14 1018.02 1017.98 1017.86 1017.74 1017.62 1017.50 1017.34 1017.22 1017.06 1016.94 1016.98 1017.06 1017.14 1017.22 1017.26 1017.22 1017.14 1017.06 1016.86 1016.50 1016.22 1015.94 1015.70
1018.98 1018.98 1019.06 1019.14 1019.18 1019.22 1019.22 1019.18 1019.14 1019.10 1019.06 1018.90 1018.78 1018.78 1018.62 1018.46 1018.34 1018.18 1018.10 1018.14 1018.02 1017.86 1017.74 1017.58 1017.34 1017.26 1017.22 1017.26 1017.30 1017.26 1017.26 1017.38 1017.50 1017.54 1017.50 1017.42 1017.22 1016.98 1016.66 1016.30 1015.90 1015.50
1018.94 1018.90 1018.90 1018.98 1019.02 1019.06 1019.02 1018.98 1018.98 1018.90 1018.86 1018.74 1018.58 1018.54 1018.50 1018.46 1018.42 1018.42 1018.26 1018.18 1018.02 1017.86 1017.70 1017.54 1017.50 1017.46 1017.74 1017.90 1017.86 1017.86 1017.90 1017.90 1017.90 1017.90 1017.86 1017.78 1017.58 1017.26 1016.82 1016.34 1015.90 1015.50
1018.62 1018.58 1018.62 1018.70 1018.74 1018.78 1018.78 1018.74 1018.74 1018.74 1018.70 1018.70 1018.62 1018.62 1018.66 1018.62 1018.66 1018.62 1018.42 1018.26 1018.06 1017.94 1017.82 1017.74 1017.78 1018.06 1018.50 1018.50 1018.46 1018.42 1018.30 1018.22 1018.26 1018.22 1018.18 1018.02 1017.86 1017.50 1016.98 1016.42 1015.94 1015.50
1018.34 1018.34 1018.38 1018.42 1018.54 1018.58 1018.62 1018.70 1018.70 1018.70 1018.74 1018.74 1018.70 1018.70 1018.70 1018.70 1018.66 1018.58 1018.50 1018.34 1018.22 1018.18 1018.10 1018.06 1018.10 1018.78 1019.14 1019.22 1019.02 1018.82 1018.66 1018.58 1018.50 1018.34 1018.26 1018.22 1017.94 1017.54 1017.02 1016.46 1015.86 1015.38
1018.26 1018.34 1018.46 1018.46 1018.50 1018.62 1018.70 1018.74 1018.78 1018.82 1018.82 1018.78 1018.82 1018.86 1018.86 1018.82 1018.82 1018.74 1018.66 1018.58 1018.50 1018.42 1018.34 1018.34 1018.62 1019.58 1020.02 1019.90 1019.82 1019.54 1019.14 1018.94 1018.66 1018.58 1018.58 1018.38 1018.02 1017.46 1016.94 1016.38 1015.82 1015.30
1018.22 1018.38 1018.38 1018.58 1018.62 1018.58 1018.70 1018.82 1018.90 1018.86 1018.86 1018.98 1019.06 1019.10 1019.06 1018.98 1019.02 1018.98 1018.90 1018.86 1018.74 1018.62 1018.70 1018.70 1019.90 1020.66 1020.74 1020.38 1020.06 1019.90 1019.66 1019.34 1019.10 1018.90 1018.70 1018.46 1018.14 1017.78 1017.22 1016.54 1016.06 1015.82
1018.34 1018.38 1018.46 1018.54 1018.70 1018.82 1018.86 1018.90 1018.90 1019.02 1019.26 1019.34 1019.30 1019.30 1019.26 1019.22 1019.22 1019.22 1019.10 1018.98 1018.90 1018.86 1018.94 1019.26 1020.94 1021.18 1020.74 1020.62 1020.46 1020.14 1020.02 1019.82 1019.42 1019.02 1018.86 1018.66 1018.34 1017.90 1017.30 1016.94 1016.70 1016.42
1018.38 1018.62 1018.70 1018.82 1018.98 1019.02 1019.06 1019.02 1019.22 1019.50 1019.58 1019.54 1019.54 1019.46 1019.46 1019.50 1019.46 1019.42 1019.30 1019.14 1019.14 1019.18 1019.22 1020.22 1021.26 1021.46 1021.14 1020.82 1020.58 1020.58 1020.42 1019.94 1019.50 1019.42 1019.22 1018.98 1018.54 1018.02 1017.58 1017.22 1016.94 1016.62
1018.50 1018.70 1018.90 1019.02 1019.14 1019.22 1019.30 1019.42 1019.70 1019.86 1019.86 1019.74 1019.74 1019.70 1019.78 1019.78 1019.66 1019.58 1019.46 1019.46 1019.46 1019.54 1019.58 1021.10 1021.50 1021.78 1021.30 1021.26 1021.30 1020.98 1020.50 1020.02 1019.74 1019.74 1019.54 1019.18 1018.78 1018.34 1017.94 1017.54 1017.14 1016.82
1018.78 1018.90 1019.22 1019.42 1019.50 1019.54 1019.66 1019.86 1020.06 1020.14 1020.06 1019.98 1020.02 1020.10 1020.06 1020.02 1019.86 1019.78 1019.78 1019.74 1019.74 1019.74 1019.94 1021.62 1022.06 1021.94 1021.78 1021.74 1021.54 1021.06 1020.50 1020.14 1020.06 1020.02 1019.74 1019.30 1018.98 1018.58 1018.06 1017.66 1017.18 1016.78
1018.90 1019.34 1019.62 1019.74 1019.86 1019.86 1020.10 1020.30 1020.38 1020.34 1020.30 1020.30 1020.38 1020.34 1020.22 1020.06 1020.02 1020.06 1020.06 1020.06 1020.06 1020.06 1020.18 1021.50 1022.34 1022.22 1022.14 1021.98 1021.62 1021.30 1021.02 1020.70 1020.50 1020.14 1019.70 1019.30 1018.86 1018.46 1018.02 1017.66 1017.34 1016.90
1019.38 1019.66 1019.98 1020.14 1020.14 1020.34 1020.54 1020.62 1020.58 1020.50 1020.54 1020.62 1020.70 1020.54 1020.38 1020.34 1020.34 1020.34 1020.38 1020.38 1020.38 1020.38 1020.50 1021.38 1022.38 1022.62 1022.34 1022.02 1021.98 1021.90 1021.50 1021.18 1020.74 1020.26 1019.86 1019.50 1019.06 1018.74 1018.50 1018.14 1017.78 1017.26
1019.74 1020.06 1020.34 1020.46 1020.50 1020.74 1020.86 1020.82 1020.70 1020.74 1020.90 1020.94 1020.90 1020.70 1020.66 1020.66 1020.62 1020.74 1020.74 1020.70 1020.74 1020.82 1020.98 1021.26 1022.54 1022.70 1022.34 1022.34 1022.34 1022.26 1022.06 1021.70 1021.22 1020.82 1020.50 1020.18 1019.78 1019.42 1019.10 1018.58 1017.90 1017.26
1020.10 1020.42 1020.62 1020.70 1020.78 1020.98 1021.02 1021.02 1020.98 1021.10 1021.22 1021.10 1021.02 1020.98 1021.02 1021.06 1021.22 1021.18 1021.18 1021.14 1021.18 1021.34 1021.30 1021.38 1021.78 1022.50 1022.54 1022.58 1022.54 1022.58 1022.42 1022.26 1021.86 1021.46 1021.18 1020.90 1020.54 1019.82 1019.10 1018.54 1017.94 1017.38
1020.34 1020.66 1020.82 1020.90 1021.06 1021.14 1021.10 1021.10 1021.14 1021.30 1021.42 1021.34 1021.38 1021.42 1021.66 1021.78 1021.70 1021.62 1021.62 1021.62 1021.78 1021.78 1021.78 1021.78 1021.90 1022.18 1022.70 1022.74 1022.78 1022.90 1022.94 1022.70 1022.34 1021.98 1021.58 1020.98 1020.42 1019.90 1019.10 1018.46 1017.98 1017.42
Wind_Speed
3 3 2 2 3 2 2 2 2 3 2 2 3 3 4 3 3 4 4 4 5 3 3 3 2 3 4 3 3 2 3 3 4 4 4 4 4 4 6 6 4 4
3 3 1 2 2 2 2 0 1 2 2 3 3 2 2 2 3 4 2 2 3 3 2 1 2 2 2 2 2 1 2 2 3 3 3 4 3 5 5 3 2 3
2 2 0 1 2 1 1 1 1 0 1 2 2 2 3 2 3 4 2 1 2 3 3 3 2 3 1 2 2 1 2 3 3 3 3 3 5 5 4 4 2 3
3 2 2 5 2 4 4 3 0 1 1 2 1 2 2 1 2 4 2 2 2 4 3 3 3 3 3 3 3 2 2 3 3 3 4 4 5 5 4 3 3 4
1 2 2 2 2 3 2 4 4 2 3 2 1 3 2 2 3 4 4 2 3 3 4 4 4 4 4 4 3 3 3 4 4 4 5 6 5 4 3 3 4 6
2 3 2 1 2 3 4 4 4 4 3 1 1 3 3 3 3 3 3 3 4 3 3 4 4 5 5 5 5 4 4 5 5 6 7 5 4 3 3 4 5 7
2 2 1 0 1 1 1 1 2 2 2 2 4 3 3 3 3 4 3 4 5 4 3 4 5 5 5 4 3 5 5 5 6 6 7 6 4 4 5 6 6 7
1 3 2 1 0 1 1 1 2 2 2 4 4 5 3 4 4 3 4 4 5 6 5 5 5 6 5 4 6 6 6 5 5 7 6 6 4 5 7 7 6 7
2 1 2 1 2 1 1 1 1 2 3 6 4 2 4 4 3 5 5 6 6 6 7 7 6 6 5 6 6 7 8 7 5 6 9 9 9 9 11 10 11 10
1 1 2 1 2 1 1 0 0 2 3 5 4 4 4 3 4 5 6 6 7 7 8 8 8 8 7 7 8 9 8 9 9 9 9 10 11 12 12 12 12 11
2 2 1 1 2 2 2 1 2 3 2 4 5 4 3 4 4 5 6 6 6 8 9 10 11 11 11 10 8 6 7 8 9 9 9 10 11 12 13 13 13 13
2 1 1 0 1 1 1 1 2 2 3 4 4 4 4 5 6 6 5 8 10 11 10 11 10 9 9 10 10 9 8 8 8 9 10 11 12 14 14 14 13 14
1 1 1 1 0 0 1 1 2 2 4 5 5 5 4 6 7 10 9 10 10 10 10 10 9 10 11 10 10 10 9 9 9 10 11 11 13 15 15 15 15 15
2 1 1 1 2 1 2 2 3 3 3 3 3 4 6 8 9 10 9 9 9 8 9 8 10 10 10 9 8 8 8 8 9 9 11 12 14 15 15 15 15 15
2 3 3 2 2 2 3 2 2 2 3 4 5 6 7 8 8 8 9 9 9 9 10 8 7 8 6 6 8 9 8 8 8 10 12 13 15 15 15 15 14 13
2 3 2 1 1 0 1 3 4 5 5 6 7 7 7 6 6 8 9 9 10 9 8 7 8 8 10 14 12 9 9 9 10 11 11 13 14 15 14 14 14 14
3 1 2 3 4 3 3 6 6 6 6 7 6 6 6 6 7 9 8 8 9 8 8 7 10 7 14 15 17 18 12 11 11 10 11 12 13 14 15 15 14 17
3 4 4 5 7 7 6 6 5 6 7 7 6 6 6 7 7 8 8 8 6 7 7 8 9 11 16 17 17 18 16 11 8 9 11 12 13 14 12 12 14 15
4 6 6 6 6 5 6 6 7 8 7 7 7 6 6 7 7 8 7 7 7 9 8 12 7 13 15 18 20 19 17 12 9 11 13 13 13 14 14 13 13 13
6 7 6 5 6 7 7 7 8 8 7 6 5 6 7 7 7 7 6 7 8 8 8 11 9 11 18 18 17 16 16 13 11 13 13 13 14 14 14 13 14 14
6 6 8 8 8 7 6 8 8 6 7 5 6 7 7 7 6 6 7 7 8 8 7 10 7 13 16 17 17 19 19 15 12 12 12 12 13 13 14 14 14 14
6 8 8 7 7 6 8 8 7 6 6 7 7 6 6 5 6 7 7 9 8 8 8 9 7 14 15 17 22 23 20 13 12 13 12 13 13 13 14 13 14 15
8 8 7 7 7 7 8 6 6 6 6 7 6 6 5 6 7 6 7 8 8 9 9 9 8 11 16 21 22 22 17 11 13 12 13 13 13 14 14 15 14 15
8 8 8 7 6 8 7 6 5 5 6 6 6 6 7 7 7 8 8 8 9 9 10 7 8 11 19 20 20 23 19 13 12 12 12 13 14 15 14 14 17 26
7 8 7 6 7 6 5 5 5 6 6 5 5 7 7 8 9 7 7 7 9 10 14 12 7 11 19 20 23 24 21 14 13 12 14 14 15 16 16 14 16 18
6 6 5 5 6 5 4 4 4 5 6 6 7 7 9 8 8 7 8 7 9 9 8 9 10 7 15 23 26 25 23 16 12 14 16 18 18 17 17 17 16 16
Wind_Direction
29 55 17 82 66 57 352 356 359 351 30 348 12 10 342 4 7 334 3 352 329 6 24 313 331 327 318 350 23 331 333 350 314 313 318 341 314 317 320 309 319 340
95 65 349 89 87 97 327 178 73 337 39 339 20 6 318 337 19 300 340 331 331 339 290 318 288 333 303 338 300 296 292 297 292 300 320 311 308 296 285 297 326 321
96 122 245 73 123 108 11 36 67 95 62 30 359 341 300 4 339 291 270 269 273 276 256 237 238 239 253 262 259 224 260 277 284 280 276 285 277 271 272 268 247 252
118 53 37 7 47 53 16 301 141 105 61 60 338 309 303 321 292 294 284 293 288 274 259 255 251 246 246 252 244 210 243 255 264 273 274 267 265 270 277 275 270 256
94 97 76 48 19 40 25 320 1 37 75 14 317 304 286 294 277 293 289 304 307 299 312 323 320 314 310 282 269 242 232 244 250 256 259 260 255 258 262 281 290 291
98 60 62 48 70 41 1 338 350 350 349 323 297 265 272 279 280 280 308 316 289 291 303 297 299 285 272 270 267 245 245 245 250 257 260 262 280 284 288 280 281 281
45 107 89 50 133 116 243 291 321 346 329 322 282 266 249 262 277 278 280 270 282 284 270 275 275 274 272 271 262 265 266 263 263 265 279 286 276 281 285 286 282 280
187 126 193 251 324 238 26 310 351 330 326 294 281 275 265 278 283 295 290 307 312 312 304 294 290 295 307 304 295 289 286 281 285 288 295 301 302 298 296 288 277 274
188 157 62 51 309 220 223 43 328 348 299 291 282 308 302 289 316 321 324 320 316 311 307 301 297 299 295 293 291 296 302 305 313 347 348 339 333 325 317 310 308 302
173 198 160 218 285 48 305 95 247 254 278 285 318 310 304 330 325 322 319 313 309 305 304 311 317 320 324 326 328 327 341 0 8 5 356 343 334 328 322 315 309 304
192 185 161 179 254 221 218 224 261 270 275 320 305 303 322 311 306 297 288 297 309 320 333 335 332 330 328 325 331 352 10 15 6 359 349 343 333 325 320 317 315 310
200 260 84 159 235 284 340 330 304 304 315 281 285 307 303 287 286 296 317 343 341 332 327 323 319 327 340 359 8 4 9 11 3 354 346 337 330 323 316 310 305 302
302 252 167 192 163 23 269 277 281 276 274 300 304 293 306 330 350 354 348 339 332 326 326 333 348 355 23 18 11 14 10 5 2 355 346 340 331 323 315 310 306 304
179 197 230 181 156 218 244 243 248 265 294 307 314 332 0 358 350 343 336 329 327 332 343 353 355 29 34 21 14 12 4 5 2 352 346 341 330 318 312 307 305 303
220 209 212 196 177 213 240 259 271 329 359 347 349 5 1 349 342 337 331 330 343 347 344 354 358 52 31 23 17 9 8 359 356 354 350 336 324 318 312 308 306 304
1 328 343 105 229 184 42 11 10 10 355 3 6 5 349 342 348 342 340 348 343 340 347 347 26 52 36 40 35 20 7 6 358 356 340 330 324 317 315 314 311 311
289 138 80 40 27 7 42 29 6 354 356 18 10 353 348 357 354 350 347 341 340 340 352 5 53 35 37 37 30 24 14 4 353 339 337 332 327 324 320 322 331 335
33 24 28 34 19 9 18 16 355 9 23 10 358 352 358 3 354 347 343 335 343 349 348 35 63 35 35 33 27 16 12 353 341 345 342 339 324 318 318 331 333 329
31 36 24 39 28 9 14 3 26 28 9 360 355 0 3 356 349 343 335 347 352 359 3 53 57 35 35 31 24 11 359 344 353 355 345 333 325 323 326 326 323 320
25 43 22 24 28 20 11 20 30 13 5 353 359 7 358 349 344 336 352 360 1 5 18 67 49 31 39 30 20 6 356 359 359 353 340 329 328 327 323 321 317 315
26 21 41 30 23 12 14 31 19 7 355 1 13 4 351 344 337 354 359 4 4 3 29 74 46 39 42 28 19 13 5 9 354 344 332 327 324 318 314 312 311 309
45 52 42 25 14 12 30 20 10 352 6 20 7 351 332 334 10 359 5 5 0 11 16 82 49 42 39 30 26 17 11 358 349 334 326 321 315 312 312 313 314 311
46 46 40 19 9 29 24 13 355 8 21 19 353 338 336 15 4 3 11 359 7 13 13 66 58 44 38 35 27 18 7 351 340 332 330 327 325 329 327 323 318 314
47 42 31 16 19 32 13 4 360 28 27 3 347 340 12 5 10 11 6 4 13 13 24 36 90 45 40 32 28 19 9 355 343 341 339 337 332 326 324 318 315 317
53 46 26 19 28 24 16 359 22 34 18 350 359 8 13 14 15 5 6 7 18 18 17 16 41 54 36 31 23 19 13 358 351 345 341 337 331 325 321 320 319 321
56 53 28 37 30 6 28 7 40 34 8 15 17 21 21 13 9 6 8 13 23 11 11 15 19 39 42 26 22 14 7 358 353 349 344 337 333 330 325 324 324 321